Wind_Speed
11 11 12 12 12 12 13 14 13 13 13 12 11 10 9 10 10 12 12 12 10 9 9 9 8 8 8 8 7 6 6 5 5 4 4 3 2 1 1 1 1 2 2 2 2 2 2 2 1
12 12 12 13 12 13 15 15 14 14 13 12 11 10 9 9 10 11 12 11 11 10 9 8 8 9 9 8 8 7 6 5 5 4 3 2 2 1 0 1 1 2 2 2 2 2 2 2 1
12 12 12 13 13 13 15 15 14 14 13 11 10 9 9 9 9 11 12 11 11 11 10 9 9 9 9 9 8 8 7 6 5 4 3 3 2 1 1 2 2 2 2 3 3 3 3 2 2
12 13 13 13 14 14 15 15 15 14 13 12 11 10 9 9 9 10 12 12 12 12 11 10 10 10 10 9 9 8 7 6 5 5 4 3 3 2 3 3 3 4 4 4 4 4 4 4 3
13 13 13 13 14 15 15 15 15 15 14 13 12 11 10 10 9 10 12 13 14 13 12 11 11 11 10 10 10 9 8 7 6 5 5 4 4 4 4 5 5 5 5 5 5 6 6 6 5
13 12 12 13 15 16 16 15 15 14 14 13 12 11 10 10 11 12 13 14 14 13 12 12 12 12 11 11 11 10 9 7 7 6 5 5 5 5 6 6 6 6 6 7 7 7 7 7 7
12 12 12 13 15 15 15 15 15 14 14 14 13 12 11 10 11 13 14 15 15 14 14 13 13 13 12 12 11 10 9 8 7 7 6 6 6 7 7 7 7 8 8 8 9 9 8 8 7
12 11 12 12 13 15 15 14 14 14 15 15 14 12 11 11 12 13 14 15 16 16 15 15 15 14 13 12 11 10 9 8 8 7 7 7 8 8 8 8 8 9 9 9 10 9 9 9 8
12 11 11 12 13 14 14 14 14 14 15 15 15 14 14 14 13 15 15 16 18 17 17 17 16 15 14 13 11 10 9 9 8 8 8 8 9 9 9 9 10 10 10 10 9 9 9 9 8
12 11 11 12 12 13 13 14 14 14 15 15 16 16 15 16 16 16 17 18 19 19 19 19 18 17 15 13 12 11 10 10 9 9 9 9 9 9 9 9 10 10 9 9 9 9 8 8 8
12 11 11 12 12 13 13 14 15 15 16 16 16 16 15 16 17 18 19 20 20 21 21 20 20 18 15 13 12 11 11 10 9 9 9 9 9 8 9 9 9 9 9 9 9 8 8 8 9
11 11 12 12 13 13 14 15 16 16 16 15 15 14 14 16 16 18 20 21 21 21 22 21 20 18 15 13 12 11 11 10 9 9 8 8 8 7 8 8 8 8 8 8 8 8 8 8 9
10 11 12 13 14 15 16 16 16 17 16 16 15 15 13 14 16 18 20 21 21 22 22 21 21 19 15 14 13 12 10 9 9 8 7 7 7 7 7 7 8 8 8 8 8 8 8 8 8
10 11 12 14 15 16 17 17 17 18 17 16 16 15 13 14 15 17 20 20 22 23 23 22 21 19 16 14 12 11 10 9 7 6 6 6 6 6 7 7 8 8 8 8 8 8 8 8 8
11 12 13 15 16 17 17 17 17 18 18 16 14 13 13 13 14 17 20 22 24 25 24 22 21 19 17 14 12 11 9 7 6 6 5 5 5 6 6 7 7 8 8 8 8 8 8 8 8
11 12 13 16 17 17 16 16 18 19 18 15 13 12 12 12 14 17 20 22 24 25 24 23 22 19 16 14 11 9 8 6 5 4 4 4 4 5 5 5 6 7 7 7 7 7 7 7 7
11 11 12 16 17 16 16 17 18 19 18 16 13 11 10 11 14 16 19 21 22 24 24 23 21 19 16 14 11 9 7 6 4 3 3 2 3 3 4 4 5 6 6 6 6 6 6 7 7
9 10 12 15 16 16 16 17 19 19 18 15 12 9 7 9 12 16 19 20 21 22 23 21 19 17 15 13 11 8 6 5 3 2 2 1 1 2 3 4 4 5 5 5 5 5 6 6 7
10 11 13 15 16 16 16 17 18 18 16 14 11 9 5 6 8 13 16 18 19 20 21 20 18 16 14 12 10 8 6 4 3 2 1 1 0 1 2 3 4 5 5 5 5 5 6 7 7
12 13 13 15 15 15 16 16 16 15 14 12 10 8 3 4 7 9 13 15 17 18 19 18 16 16 14 12 10 8 6 4 3 2 2 1 0 1 2 3 3 4 4 4 5 6 7 7 8
13 13 13 15 15 15 15 15 14 13 12 11 9 7 3 2 6 9 10 11 14 16 16 17 16 15 13 11 10 8 7 5 4 3 2 2 1 1 2 2 3 4 4 4 5 6 7 8 9
12 14 14 14 14 14 14 13 13 12 11 10 8 6 4 1 4 7 9 11 13 14 14 15 14 14 13 11 10 8 7 6 5 4 3 2 1 1 2 3 3 4 4 5 6 7 8 9 10
13 14 13 13 12 13 13 11 12 11 10 8 7 5 3 2 2 5 8 9 10 12 12 13 13 13 12 11 9 9 7 6 6 4 4 3 3 3 3 3 4 5 5 6 7 8 9 10 10
14 13 13 12 11 11 12 10 10 10 9 7 5 4 3 2 2 4 6 8 9 10 11 12 12 12 11 11 10 9 8 7 6 5 5 5 4 4 4 5 5 6 6 7 7 9 10 10 11
12 12 11 10 10 11 12 10 9 9 7 6 4 3 2 1 1 4 5 7 8 9 11 11 11 11 11 11 10 9 9 8 7 7 6 6 6 6 6 6 6 7 8 8 9 10 11 11 12
12 12 10 10 10 10 11 9 10 9 7 6 5 3 2 1 2 4 6 7 8 9 10 11 11 12 11 11 10 10 9 9 8 8 8 8 8 8 8 8 8 9 10 10 11 12 12 13 14
15 13 12 12 11 10 10 11 11 10 8 7 7 5 4 4 4 5 6 8 9 10 11 12 12 12 12 11 11 11 11 10 10 10 10 10 10 10 11 11 11 11 12 13 13 14 15 15 16
17 16 14 12 11 10 10 10 10 11 9 8 7 7 6 6 6 6 7 8 9 10 11 12 12 13 13 12 12 13 13 12 12 13 13 13 13 13 13 13 14 14 15 15 16 17 17 18 18
18 17 15 13 13 11 9 10 12 11 10 9 9 8 8 7 7 8 8 9 9 10 12 13 13 13 13 14 14 14 15 15 15 15 16 16 16 16 16 17 17 17 17 18 18 19 19 20 20
19 17 15 14 13 12 10 10 13 11 11 10 10 10 9 9 9 10 10 11 11 12 13 13 14 15 15 16 16 16 17 18 18 19 19 19 19 20 20 20 20 20 20 20 21 21 21 22 22
Wind_Direction
321 317 316 315 316 317 313 310 310 309 311 309 303 295 290 272 256 241 229 219 212 206 205 201 200 205 208 214 215 208 197 186 175 169 165 160 148 125 73 45 27 19 15 14 17 21 24 28 34
319 317 316 316 318 317 311 310 310 309 310 309 303 292 282 275 259 239 226 216 214 212 211 208 207 211 215 218 220 217 209 201 196 194 193 189 188 195 303 326 332 341 345 344 346 344 340 349 356
320 318 316 315 313 308 305 309 308 309 309 309 305 296 286 272 254 237 225 217 215 215 214 214 213 217 222 223 224 223 218 213 211 213 217 217 219 237 279 299 310 323 329 325 326 325 319 311 302
320 318 316 314 309 306 305 305 306 306 308 306 302 297 288 269 251 232 221 218 217 219 218 218 222 225 225 226 227 227 225 222 222 227 230 234 246 269 287 298 298 301 309 314 311 305 300 295 284
320 318 316 313 308 307 306 306 306 305 306 305 300 293 283 266 248 233 227 221 217 219 222 223 227 229 229 229 230 229 230 229 230 234 242 252 267 286 295 300 297 295 297 301 301 296 291 288 280
320 320 317 308 308 308 308 307 305 303 304 302 300 290 276 263 245 235 229 224 220 218 221 226 230 231 231 231 231 231 231 233 237 245 256 269 279 290 295 297 298 295 294 295 295 288 286 285 278
320 320 314 309 308 308 308 307 304 301 301 299 293 283 269 257 245 237 231 225 220 218 221 226 231 233 231 231 231 231 234 239 245 254 266 277 284 291 293 296 297 295 294 294 293 288 283 282 278
325 323 320 317 312 308 307 305 302 299 297 295 288 279 266 257 245 234 229 225 220 220 225 228 230 231 230 230 231 233 238 244 252 261 270 280 287 293 294 294 296 296 294 293 292 292 291 284 275
335 332 324 320 315 310 309 305 304 301 295 290 285 275 263 255 243 233 227 225 222 224 226 225 228 228 227 229 232 237 244 251 259 266 275 281 286 291 296 296 296 300 298 296 296 291 288 286 278
339 337 327 325 321 314 311 308 308 306 300 291 281 271 259 251 241 231 225 224 224 225 226 224 226 225 227 230 235 241 249 256 262 269 276 280 284 290 298 301 298 301 303 302 296 292 288 286 284
342 339 333 328 325 320 317 315 313 310 304 296 286 275 263 252 243 232 226 224 223 223 221 220 224 224 227 233 237 243 250 256 263 269 272 278 284 290 297 303 305 305 305 305 300 294 289 286 282
344 340 335 332 329 325 322 320 316 314 308 303 294 282 265 256 241 234 225 222 220 219 218 219 220 223 228 233 238 245 249 254 262 269 271 280 288 296 299 302 304 305 307 305 303 302 295 292 286
345 339 334 331 329 326 323 320 316 314 309 303 293 284 268 254 242 235 220 217 218 216 216 219 219 221 227 232 236 243 246 252 259 267 275 282 290 297 296 298 301 304 305 304 305 306 304 304 298
342 338 334 333 331 327 323 322 317 316 313 305 295 286 270 256 243 230 218 215 215 215 217 220 220 221 224 228 232 239 246 250 254 264 274 280 287 293 295 300 302 303 304 306 307 305 305 305 302
339 339 335 330 329 328 326 325 324 324 320 309 298 285 273 255 236 225 216 215 214 214 216 218 219 219 223 223 226 231 235 238 250 263 274 277 283 289 294 301 305 304 307 309 308 308 306 304 304
340 343 336 325 326 326 329 330 329 331 329 320 301 289 273 247 225 218 214 212 214 214 214 215 216 218 218 217 222 224 228 233 247 269 286 288 290 296 299 306 308 308 311 313 312 310 311 310 307
337 332 326 323 326 327 330 330 330 334 334 331 314 296 274 245 225 219 217 215 217 214 209 211 215 215 214 215 218 220 224 234 246 264 289 298 300 308 314 314 314 314 315 315 314 313 315 314 309
308 322 327 324 327 328 330 329 331 335 336 334 325 309 278 242 225 216 215 214 211 209 208 209 210 210 210 212 213 215 217 225 236 249 277 298 310 325 331 329 332 334 333 331 327 322 321 321 316
315 323 326 324 327 327 329 329 331 335 340 340 338 324 292 236 214 206 209 209 207 207 207 205 202 203 203 204 208 208 208 214 221 223 222 231 314 353 352 348 348 349 348 345 341 337 334 329 323
315 320 320 320 324 328 328 329 332 338 345 347 347 342 306 227 204 199 198 201 202 204 205 201 202 199 198 200 202 204 208 210 211 207 191 184 212 354 359 357 353 349 348 347 344 338 335 331 326
316 317 316 316 322 326 331 335 338 343 348 351 354 358 355 220 191 183 185 186 187 186 191 193 196 194 195 198 201 206 205 204 202 197 188 188 220 323 336 340 342 344 345 341 337 334 333 331 327
310 316 317 318 324 327 331 335 334 342 349 353 2 7 12 72 178 184 182 177 176 179 183 187 190 192 195 200 204 204 204 205 205 204 204 212 242 290 316 329 333 335 338 338 335 333 330 328 325
302 310 315 318 321 328 329 334 331 338 344 355 5 14 28 65 158 182 184 181 182 186 189 192 194 196 201 205 208 206 209 210 212 213 220 229 248 271 298 311 318 321 327 330 331 329 329 327 327
298 304 313 321 325 326 320 327 328 329 338 344 356 9 21 51 148 167 178 185 191 195 199 199 201 205 209 209 209 211 214 215 220 224 232 241 252 267 284 295 304 312 317 320 322 324 324 323 324
294 306 318 323 322 315 313 318 316 319 326 332 332 344 352 11 187 192 190 195 200 203 204 205 208 210 210 210 213 217 221 221 225 234 243 250 256 265 275 285 295 303 307 312 315 319 320 320 321
286 293 294 297 303 308 310 310 306 306 311 313 315 312 307 278 243 220 207 207 210 214 215 217 218 216 216 217 219 223 224 225 232 241 250 256 261 266 272 280 288 294 299 303 307 311 312 314 315
279 281 280 287 298 308 305 303 300 295 297 301 299 296 286 267 251 239 227 222 223 224 225 224 224 223 223 222 224 228 230 234 240 248 254 259 262 266 272 278 284 289 294 298 302 305 307 309 310
273 275 277 279 285 295 301 303 292 290 292 293 292 289 287 275 259 250 243 239 237 232 231 229 229 230 231 231 232 235 238 242 247 252 257 260 262 267 272 277 282 286 291 295 299 302 304 306 307
267 269 270 270 273 282 289 287 279 281 285 285 284 279 280 277 268 259 255 251 247 242 238 237 236 236 238 237 238 242 246 250 253 257 260 263 266 269 272 277 281 285 289 293 296 299 301 303 305
262 263 268 271 274 276 276 279 274 274 276 278 279 275 273 273 271 267 262 259 255 251 247 244 244 244 244 244 245 249 253 256 259 261 263 266 269 272 275 278 281 284 288 290 293 296 299 300 302
Height
5916 5915 5914 5914 5914 5914 5912 5911 5910 5909 5908 5907 5906 5905 5904 5904 5904 5906 5904 5904 5905 5905 5905 5905 5906 5907 5908 5908 5909 5909 5909 5909 5909 5909 5909 5910 5910 5910 5911 5911 5911 5911 5910 5910 5910 5909 5909 5909 5908
5914 5913 5913 5913 5913 5912 5910 5909 5908 5907 5906 5905 5904 5903 5901 5901 5901 5901 5901 5902 5903 5903 5904 5904 5905 5906 5907 5907 5908 5908 5908 5908 5908 5909 5909 5909 5909 5910 5910 5910 5910 5910 5910 5909 5909 5909 5908 5908 5908
5912 5911 5911 5911 5910 5910 5908 5906 5905 5904 5903 5902 5901 5900 5899 5898 5898 5898 5899 5900 5901 5902 5902 5903 5904 5905 5906 5906 5907 5907 5907 5907 5908 5908 5908 5909 5909 5909 5909 5909 5909 5909 5909 5908 5908 5908 5908 5907 5907
5910 5910 5910 5909 5907 5906 5905 5903 5902 5901 5900 5900 5899 5898 5897 5896 5896 5896 5897 5897 5899 5900 5900 5901 5902 5903 5904 5905 5906 5906 5906 5907 5907 5907 5907 5908 5908 5908 5908 5908 5908 5908 5908 5907 5907 5907 5906 5906 5906
5908 5908 5907 5906 5904 5903 5902 5900 5899 5898 5897 5897 5896 5895 5894 5894 5893 5894 5895 5895 5896 5897 5898 5899 5900 5902 5903 5904 5904 5904 5905 5905 5905 5906 5906 5906 5907 5907 5907 5906 5906 5906 5906 5906 5905 5905 5905 5904 5904
5906 5906 5905 5904 5901 5900 5898 5897 5896 5895 5894 5893 5893 5892 5892 5891 5891 5892 5892 5893 5894 5895 5896 5897 5898 5900 5901 5902 5903 5903 5903 5904 5904 5904 5904 5905 5905 5905 5905 5904 5904 5904 5904 5904 5903 5903 5903 5902 5902
5905 5904 5902 5901 5899 5897 5896 5894 5893 5892 5891 5890 5889 5889 5888 5888 5888 5889 5889 5890 5891 5892 5894 5895 5896 5898 5899 5900 5901 5901 5902 5902 5902 5902 5902 5903 5903 5903 5902 5902 5902 5902 5902 5901 5901 5900 5900 5900 5899
5902 5902 5899 5898 5897 5895 5893 5891 5890 5889 5888 5887 5886 5886 5885 5885 5885 5886 5887 5887 5888 5890 5891 5893 5894 5896 5897 5898 5899 5899 5900 5900 5900 5900 5900 5900 5900 5900 5900 5900 5899 5899 5899 5898 5898 5898 5897 5897 5897
5899 5900 5898 5896 5894 5893 5890 5889 5887 5886 5885 5883 5882 5882 5881 5881 5881 5882 5883 5884 5886 5887 5888 5890 5892 5893 5894 5895 5896 5897 5897 5898 5898 5898 5898 5898 5898 5897 5897 5897 5897 5896 5896 5895 5895 5895 5894 5894 5894
5898 5897 5896 5894 5892 5890 5888 5886 5884 5882 5881 5879 5877 5876 5876 5876 5877 5878 5879 5881 5882 5883 5885 5887 5889 5890 5892 5893 5894 5895 5895 5896 5896 5896 5896 5896 5896 5895 5895 5894 5894 5894 5893 5893 5892 5892 5892 5891 5891
5896 5895 5893 5891 5890 5888 5885 5883 5881 5879 5877 5875 5873 5872 5871 5872 5872 5873 5875 5876 5878 5880 5882 5884 5886 5888 5889 5891 5892 5893 5893 5893 5893 5894 5894 5894 5893 5893 5892 5892 5892 5891 5891 5890 5890 5889 5889 5889 5889
5895 5893 5891 5890 5887 5885 5883 5881 5878 5876 5874 5871 5869 5867 5866 5867 5867 5869 5870 5872 5875 5877 5879 5881 5883 5885 5887 5889 5890 5890 5891 5891 5891 5891 5891 5891 5891 5891 5890 5890 5889 5889 5888 5888 5888 5887 5887 5887 5886
5894 5892 5890 5888 5886 5883 5881 5878 5876 5873 5870 5867 5865 5863 5862 5862 5862 5864 5865 5868 5871 5873 5876 5879 5881 5883 5885 5886 5887 5888 5888 5889 5889 5889 5889 5889 5889 5889 5888 5888 5887 5887 5886 5886 5885 5885 5885 5884 5884
5892 5891 5888 5886 5884 5881 5879 5876 5873 5870 5866 5863 5861 5859 5858 5858 5858 5859 5861 5864 5867 5870 5873 5876 5878 5880 5882 5884 5885 5886 5886 5887 5887 5887 5887 5887 5887 5887 5887 5886 5886 5885 5885 5884 5883 5883 5882 5882 5882
5891 5889 5887 5885 5882 5879 5877 5874 5871 5867 5863 5860 5857 5855 5854 5853 5854 5855 5857 5860 5863 5867 5870 5873 5875 5877 5879 5881 5883 5884 5884 5885 5885 5885 5885 5885 5885 5885 5885 5885 5884 5883 5883 5882 5882 5881 5880 5880 5880
5889 5888 5888 5884 5881 5878 5877 5873 5869 5864 5860 5856 5854 5852 5850 5849 5850 5851 5853 5857 5860 5864 5866 5869 5872 5875 5877 5879 5880 5882 5883 5884 5884 5883 5883 5883 5883 5883 5883 5883 5882 5882 5881 5881 5880 5880 5879 5878 5878
5889 5889 5887 5883 5879 5876 5874 5871 5867 5862 5858 5854 5851 5849 5847 5846 5847 5848 5851 5854 5857 5860 5864 5867 5869 5872 5875 5877 5879 5880 5881 5882 5882 5882 5882 5882 5882 5882 5882 5881 5881 5881 5880 5879 5879 5878 5877 5877 5876
5889 5886 5884 5882 5878 5874 5872 5868 5864 5860 5856 5852 5849 5846 5844 5844 5844 5846 5848 5851 5854 5858 5861 5864 5867 5870 5872 5875 5877 5878 5880 5881 5881 5881 5881 5881 5881 5881 5880 5880 5880 5879 5879 5878 5877 5877 5876 5875 5875
5885 5883 5882 5879 5876 5873 5870 5867 5863 5858 5854 5851 5847 5845 5843 5843 5842 5844 5846 5849 5852 5855 5859 5862 5865 5868 5871 5873 5875 5877 5878 5879 5880 5880 5880 5880 5880 5880 5880 5879 5879 5878 5878 5877 5876 5876 5875 5874 5873
5882 5881 5880 5877 5874 5871 5868 5865 5862 5858 5854 5850 5848 5845 5843 5842 5843 5844 5845 5847 5850 5853 5857 5860 5863 5867 5870 5872 5874 5876 5877 5878 5879 5879 5879 5880 5880 5879 5879 5878 5878 5877 5877 5876 5875 5874 5874 5873 5872
5880 5879 5877 5875 5872 5869 5867 5864 5861 5858 5854 5851 5848 5846 5844 5843 5843 5844 5845 5847 5850 5853 5856 5860 5863 5866 5869 5871 5873 5875 5876 5877 5878 5878 5879 5879 5879 5879 5878 5878 5877 5877 5876 5875 5874 5873 5872 5871 5870
5879 5876 5874 5872 5870 5869 5867 5864 5861 5857 5854 5852 5849 5847 5845 5844 5845 5845 5847 5849 5851 5854 5857 5860 5863 5865 5868 5870 5872 5873 5875 5876 5877 5877 5878 5878 5878 5878 5877 5877 5876 5876 5875 5874 5873 5872 5871 5870 5869
5875 5874 5872 5870 5868 5867 5865 5863 5862 5858 5855 5852 5850 5849 5847 5847 5847 5847 5849 5851 5853 5855 5857 5860 5863 5865 5867 5869 5871 5872 5873 5874 5875 5876 5876 5877 5877 5876 5876 5876 5875 5875 5874 5873 5872 5870 5869 5868 5867
5873 5872 5870 5868 5867 5867 5864 5862 5861 5857 5855 5853 5851 5850 5849 5848 5848 5849 5850 5852 5853 5855 5858 5860 5862 5864 5866 5868 5869 5871 5872 5873 5874 5875 5875 5875 5875 5875 5875 5874 5874 5873 5872 5871 5870 5869 5867 5866 5864
5870 5870 5870 5869 5868 5866 5862 5860 5859 5856 5855 5853 5852 5851 5850 5849 5849 5850 5851 5852 5854 5855 5857 5859 5861 5863 5864 5866 5868 5869 5870 5871 5872 5873 5873 5873 5873 5873 5873 5873 5872 5871 5870 5869 5868 5867 5865 5863 5862
5867 5868 5868 5868 5866 5865 5861 5859 5858 5855 5854 5852 5852 5851 5851 5850 5850 5851 5851 5852 5854 5855 5857 5858 5860 5862 5863 5865 5866 5867 5868 5869 5870 5870 5871 5871 5871 5871 5871 5871 5870 5869 5868 5867 5866 5864 5862 5861 5859
5864 5864 5864 5863 5862 5861 5860 5857 5855 5853 5852 5852 5851 5850 5850 5850 5850 5851 5851 5852 5853 5854 5855 5857 5859 5860 5861 5862 5864 5865 5866 5867 5868 5868 5869 5869 5869 5869 5868 5868 5867 5866 5865 5864 5863 5861 5859 5857 5855
5860 5860 5859 5860 5859 5860 5859 5857 5855 5852 5851 5850 5850 5849 5849 5849 5849 5850 5850 5851 5852 5852 5854 5855 5857 5858 5858 5860 5861 5863 5864 5864 5865 5866 5866 5866 5866 5866 5865 5865 5864 5863 5862 5860 5859 5857 5855 5853 5851
5856 5856 5855 5856 5855 5856 5856 5857 5851 5850 5848 5848 5848 5847 5847 5847 5848 5848 5848 5849 5850 5851 5852 5853 5854 5855 5857 5858 5859 5860 5861 5861 5862 5862 5862 5862 5862 5862 5861 5861 5860 5859 5857 5856 5854 5852 5850 5848 5846
5850 5851 5851 5852 5851 5851 5851 5854 5848 5847 5846 5845 5845 5845 5845 5845 5845 5846 5846 5847 5847 5848 5849 5850 5851 5852 5854 5855 5856 5856 5857 5858 5858 5858 5858 5858 5858 5857 5857 5856 5855 5854 5852 5851 5849 5847 5845 5843 5841